User: anonymous   Login
Location: Bauerbach
(50.4985°N, 10.3912°E)
Time: 19:54:15
(UTC+00:00)
Language:

IRS-1C - Orbit

View from above orbital plane
View from above orbital plane
View from above satellite
View from above satellite

Ground track
Ground track

The orbit is defined by the following mean orbital elements,

1 23751U          26073.61819544 +.00000000 +00000-0 +78153-4 0 00005
2 23751  99.0287  90.2569 0000878  94.9814 265.1463 14.23543782    00
Epoch (UTC): 14 March 2026 14:50:12
Eccentricity: 0.0000878
inclination: 99.0287°
perigee height: 813 km
apogee height: 814 km
right ascension of ascending node: 90.2569°
argument of perigee: 94.9814°
revolutions per day: 14.23543782
mean anomaly at epoch: 265.1463°

The dashed part of the orbit path shows where the satellite is in the earth's shadow,  

DLR